TimeCDT,TemperatureF,Dew PointF,Humidity,Sea Level PressureIn,VisibilityMPH,Wind Direction,Wind SpeedMPH,Gust SpeedMPH,PrecipitationIn,Events,Conditions,WindDirDegrees,DateUTC
12:52 AM,48.0,28.9,48,29.98,10.0,NNW,10.4,-,N/A,,Clear,340,2012-10-02 05:52:00
2:52 AM,37.0,27.0,67,29.98,10.0,NNW,8.1,-,N/A,,Clear,330,2012-10-02 07:52:00
3:52 AM,37.9,28.0,68,29.97,10.0,NW,8.1,-,N/A,,Clear,320,2012-10-02 08:52:00
4:52 AM,37.0,27.0,67,29.96,10.0,NW,6.9,-,N/A,,Clear,320,2012-10-02 09:52:00
5:52 AM,37.0,28.0,70,29.98,10.0,NW,6.9,-,N/A,,Clear,320,2012-10-02 10:52:00
6:52 AM,36.0,27.0,70,29.99,10.0,NW,6.9,-,N/A,,Clear,310,2012-10-02 11:52:00
8:52 AM,50.0,33.1,52,30.00,6.0,NW,3.5,-,N/A,,Haze,320,2012-10-02 13:52:00
9:52 AM,55.9,36.0,47,29.98,10.0,Calm,Calm,-,N/A,,Clear,0,2012-10-02 14:52:00
10:52 AM,63.0,43.0,48,29.96,10.0,SSE,6.9,-,N/A,,Clear,150,2012-10-02 15:52:00
11:52 AM,66.0,45.0,47,29.96,-9999.0,North,-9999.0,-,N/A,,Unknown,0,2012-10-02 16:52:00
12:52 PM,68.0,42.1,39,29.94,10.0,South,8.1,-,N/A,,Clear,190,2012-10-02 17:52:00
2:52 PM,71.1,37.0,29,29.88,10.0,SW,8.1,-,N/A,,Clear,220,2012-10-02 19:52:00
3:52 PM,72.0,35.1,26,29.86,10.0,SSW,6.9,-,N/A,,Clear,200,2012-10-02 20:52:00
4:52 PM,72.0,30.9,22,29.86,10.0,WSW,11.5,-,N/A,,Clear,240,2012-10-02 21:52:00
5:52 PM,71.1,30.9,23,29.86,10.0,SSW,8.1,-,N/A,,Clear,210,2012-10-02 22:52:00
6:52 PM,66.0,30.0,26,29.86,10.0,SSW,5.8,-,N/A,,Clear,210,2012-10-02 23:52:00
7:52 PM,55.9,28.9,36,29.87,4.0,SSE,6.9,-,N/A,,Haze,160,2012-10-03 00:52:00
9:52 PM,48.9,28.9,46,29.89,6.0,South,6.9,-,N/A,,Haze,190,2012-10-03 02:52:00
10:52 PM,50.0,30.0,46,29.89,9.0,South,4.6,-,N/A,,Clear,190,2012-10-03 03:52:00
11:52 PM,48.9,30.0,48,29.89,10.0,SSW,5.8,-,N/A,,Clear,200,2012-10-03 04:52:00